This is the latest recevied weather packets stored in our database for station/object K6GMW. If no packets are shown the sender has not sent any weather packets the latest 10 day(s).
| Time | Temp. | Humidity | Pressure | Rain* | Wind** | Luminosity | Snow |
|---|---|---|---|---|---|---|---|
| 1777568043 | 17.78° C | 79% | 1016 hPa | 0 mm | - | 261 W/m² | - |
| 1777567740 | 17.78° C | 79% | 1016 hPa | 0 mm | - | 235 W/m² | - |
| 1777567436 | 17.78° C | 79% | 1015.6 hPa | 0 mm | - | 330 W/m² | - |
| 1777567134 | 17.78° C | 79% | 1015.8 hPa | 0 mm | - | 347 W/m² | - |
| 1777566832 | 17.78° C | 79% | 1015.9 hPa | 0 mm | - | 311 W/m² | - |
| 1777566530 | 17.78° C | 80% | 1015.6 hPa | 0 mm | - | 267 W/m² | - |
| 1777566227 | 17.78° C | 82% | 1016 hPa | 0 mm | - | 285 W/m² | - |
| 1777565924 | 17.78° C | 82% | 1015.6 hPa | 0 mm | - | 296 W/m² | - |
| 1777565619 | 17.78° C | 81% | 1015.7 hPa | 0 mm | - | 293 W/m² | - |
| 1777565316 | 17.78° C | 81% | 1016 hPa | 0 mm | - | 279 W/m² | - |
| 1777565012 | 17.78° C | 80% | 1016.1 hPa | 0 mm | - | 263 W/m² | - |
| 1777564707 | 17.78° C | 82% | 1016.1 hPa | 0 mm | - | 258 W/m² | - |
| 1777564403 | 17.78° C | 81% | 1016.1 hPa | 0 mm | - | 263 W/m² | - |
| 1777564099 | 17.78° C | 80% | 1016 hPa | 0 mm | - | 288 W/m² | - |
| 1777563795 | 17.78° C | 81% | 1015.9 hPa | 0 mm | - | 330 W/m² | - |
| 1777563492 | 17.22° C | 82% | 1015.9 hPa | 0 mm | - | 257 W/m² | - |
| 1777563191 | 17.22° C | 82% | 1016 hPa | 0 mm | - | 285 W/m² | - |
| 1777562888 | 17.22° C | 82% | 1015.6 hPa | 0 mm | - | 234 W/m² | - |
| 1777562584 | 17.22° C | 83% | 1015.8 hPa | 0 mm | - | 245 W/m² | - |
| 1777562283 | 17.22° C | 83% | 1015.7 hPa | 0 mm | - | 251 W/m² | - |
| 1777561980 | 17.22° C | 83% | 1015.7 hPa | 0 mm | - | 234 W/m² | - |
| 1777561677 | 17.22° C | 84% | 1015.5 hPa | 0 mm | - | 274 W/m² | - |
| 1777561372 | 17.22° C | 83% | 1015.6 hPa | 0 mm | - | 239 W/m² | - |
| 1777561068 | 17.22° C | 84% | 1015.5 hPa | 0 mm | - | 347 W/m² | - |
| 1777560763 | 17.22° C | 85% | 1015.6 hPa | 0 mm | - | 323 W/m² | - |
* Rain latest hour (hover to see other rain measurements)
** Current wind speed in m/s (hover to see current wind gust speed)